Tracking 30918 objects as of 2-Jul-2025
HD Live streaming from Space Station
objects crossing your sky now

SL-6 R/B(2)

Track SL-6 R/B(2) now!


NORAD ID: 10155
Int'l Code: 1977-054D
Perigee: 1,218.5 km
Apogee: 32,031.4 km
Inclination: 64.2 °
Period: 578.4 minutes
Semi major axis: 22995 km
RCS: 7.637 m2 (large)
Launch date: June 24, 1977
Source: Commonwealth of Independent States (former USSR) (CIS)
Launch site: TYURATAM MISSILE AND SPACE COMPLEX (TTMTR)

Note: This is a ROCKET BODY
Your satellite tracking list
STARLINK-32266
Track 1 satellite(s)




NASA's NSSDC Master Catalog

Two Line Element Set (TLE):
1 10155U 77054D   25180.33817684  .00000041  00000-0  88546-2 0  9999
2 10155  64.1599 260.9493 6699643 281.4125  15.4495  2.48957912109978
Source of the keplerian elements: AFSPC